Location: Unspecified
(41.5000°N, 0.0000°E)
Time: 19:19:51
(UTC+00:00)

Transit 4A - Visible Passes

Search period start: 07 August 2020 00:00
Search period end: 17 August 2020 00:00
Orbit: 865 x 980 km, 66.8° (Epoch: 07 August)

Date Brightness Start Highest point End Pass type
(mag) Time Alt. Az. Time Alt. Az. Time Alt. Az.
08 Aug 9.4 19:28:09 10° NW 19:33:58 39° WSW 19:39:48 10° S visible
09 Aug 10.0 19:37:57 10° NW 19:43:05 26° WSW 19:48:14 10° SSW visible
10 Aug 10.5 19:48:10 10° WNW 19:52:08 17° WSW 19:56:06 10° SW visible
11 Aug 10.9 19:59:49 10° W 20:01:06 11° W 20:02:23 10° WSW visible
